Location: Dompnac
(44.5644°N, 4.1026°E)
Time: 09:36:51
(UTC+00:00)

Cosmos 2026 Rocket - Pass Details

Date: 17 January 2021
Orbit: 940 x 1000 km, 82.9° (Epoch: 26 February)

Event Time Altitude Azimuth Distance (km) Brightness Sun altitude
Rises 04:49:10 0° 4° (N) 3,695 7.0 -25.7°
Reaches altitude 10° 04:52:37 10° 23° (NNE) 2,753 6.5 -25.1°
Maximum altitude 04:56:48 18° 65° (ENE) 2,221 6.5 -24.3°
Drops below altitude 10° 05:01:00 10° 107° (ESE) 2,762 7.4 -23.6°
Sets 05:04:26 0° 125° (SE) 3,711 8.1 -23.0°
